Nome, AK

3:13 PM AKDT on March 29, 2015 (GMT -0800)
Nome | | Change Station
CLOSE
Current Station
Airport
Location: Nome,
Elevation: 36 ft
Nearby Weather Stations

Elev 36 ft 64.51 °N, 165.45 °W | Updated 20 minutes ago

Clear
Clear
12 °F
Feels Like 4 °F
N
5
Wind Variable Wind from SSE

Today
High -- | Low -- °F
--% Chance of Precip.
Yesterday
High -- | Low -- °F
Precip. -- in
8:29 AM 9:44 PM
Waxing Gibbous, 75% visible
Pressure 29.60 in
Visibility 10.0 miles
Clouds Clear
Windchill 4 °F
Dew Point 8 °F
Humidity 84%
Rainfall 0.00 in
Snow Depth Not available.
UV 3 out of 12
Pollen Not available.
Air Quality Not available.
Flu Activity Not available.
METAR PAOM 292253Z 15004KT 10SM CLR M11/M13 A2960 RMK AO2 SLP024 T11111133

More Conditions Fewer Conditions

Pressure 29.60 in
Visibility 10.0 miles
Clouds Clear
Windchill 4 °F
Dew Point 8 °F
Humidity 84%
Rainfall 0.00 in
Snow Depth Not available.
UV 3 out of 12
Pollen Not available.
Air Quality Not available.
Flu Activity Not available.
METAR PAOM 292253Z 15004KT 10SM CLR M11/M13 A2960 RMK AO2 SLP024 T11111133

More Conditions Fewer Conditions

10-Day Weather Forecast

Almanac

Astronomy

Mar. 29, 2015 Rise Set
Actual Time
Civil Twilight
Nautical Twilight
Astronomical Twilight
Moon
Length of Visible Light
Length of Day
Tomorrow will be .
, % of the Moon is Illuminated

Today's Extremes

State Highs State Lows

Community

WunderPhotos

Upload Photos

1,809,378 photos uploaded!

WunderBlogs® & News

Nearby

Air Quality

  Air Quality AQ Index Pollutant
Not available.

Snow Depth

Station Depth Elevation

Earthquake Activity

City Distance Mag. Time & Date
Minimum magnitude displayed is 2.5.

Coastal Water Temperatures

Place Temperature

Stations

Nearby Weather Stations

Station Location Temp. Windchill Dew Point Humidity Wind Precip. Elev Updated Type